Time,TemperatureF,DewpointF,PressureIn,WindDirection,WindDirectionDegrees,WindSpeedMPH,WindSpeedGustMPH,Humidity,HourlyPrecipIn,Conditions,Clouds,dailyrainin,SoftwareType,DateUTC
2013-12-31 00:00:00,30.6,29.3,30.17,North,32767,0.0,0.0,95,0.00,,,0.00,Wunderground v.1.15,2013-12-31 05:00:00,
2013-12-31 00:05:00,30.6,29.3,30.17,North,360,0.0,0.0,95,0.00,,,0.00,Wunderground v.1.15,2013-12-31 05:05:00,
2013-12-31 00:15:00,30.6,29.1,30.17,North,32767,0.0,0.0,94,0.00,,,0.00,Wunderground v.1.15,2013-12-31 05:15:00,
2013-12-31 00:20:00,30.6,29.1,30.17,North,360,0.0,0.0,94,0.00,,,0.00,Wunderground v.1.15,2013-12-31 05:20:00,
2013-12-31 00:25:00,30.6,29.1,30.17,North,360,0.0,0.0,94,0.00,,,0.00,Wunderground v.1.15,2013-12-31 05:25:00,
2013-12-31 00:35:00,30.6,29.1,30.17,North,32767,0.0,0.0,94,0.00,,,0.00,Wunderground v.1.15,2013-12-31 05:35:00,
2013-12-31 00:40:00,30.6,28.8,30.17,North,32767,0.0,0.0,93,0.00,,,0.00,Wunderground v.1.15,2013-12-31 05:40:00,
2013-12-31 00:45:00,30.6,28.8,30.17,North,360,0.0,0.0,93,0.00,,,0.00,Wunderground v.1.15,2013-12-31 05:45:00,
2013-12-31 00:50:00,30.6,28.8,30.17,North,32767,0.0,0.0,93,0.00,,,0.00,Wunderground v.1.15,2013-12-31 05:50:00,
2013-12-31 00:55:00,30.6,28.8,30.17,North,32767,0.0,0.0,93,0.00,,,0.00,Wunderground v.1.15,2013-12-31 05:55:00,
2013-12-31 01:05:00,30.5,28.5,30.16,North,360,0.0,0.0,92,0.00,,,0.00,Wunderground v.1.15,2013-12-31 06:05:00,
2013-12-31 01:15:00,30.5,28.5,30.16,North,32767,0.0,0.0,92,0.00,,,0.00,Wunderground v.1.15,2013-12-31 06:15:00,
2013-12-31 01:20:00,30.4,28.4,30.16,North,32767,0.0,0.0,92,0.00,,,0.00,Wunderground v.1.15,2013-12-31 06:20:00,
2013-12-31 01:25:00,30.3,28.3,30.16,North,32767,0.0,0.0,92,0.00,,,0.00,Wunderground v.1.15,2013-12-31 06:25:00,
2013-12-31 01:35:00,30.1,28.1,30.16,North,32767,0.0,0.0,92,0.00,,,0.00,Wunderground v.1.15,2013-12-31 06:35:00,
2013-12-31 01:45:00,30.1,27.8,30.16,North,32767,0.0,0.0,91,0.00,,,0.00,Wunderground v.1.15,2013-12-31 06:45:00,
2013-12-31 01:50:00,30.1,27.8,30.16,North,32767,0.0,0.0,91,0.00,,,0.00,Wunderground v.1.15,2013-12-31 06:50:00,
2013-12-31 02:00:00,30.1,27.8,30.16,North,32767,0.0,0.0,91,0.00,,,0.00,Wunderground v.1.15,2013-12-31 07:00:00,
2013-12-31 02:05:00,30.1,27.8,30.17,North,360,0.0,0.0,91,0.00,,,0.00,Wunderground v.1.15,2013-12-31 07:05:00,
2013-12-31 02:15:00,30.2,27.9,30.17,North,32767,0.0,0.0,91,0.00,,,0.00,Wunderground v.1.15,2013-12-31 07:15:00,
2013-12-31 02:25:00,30.1,27.5,30.18,North,360,0.0,0.0,90,0.00,,,0.00,Wunderground v.1.15,2013-12-31 07:25:00,
2013-12-31 02:30:00,30.0,27.4,30.18,North,32767,0.0,0.0,90,0.00,,,0.00,Wunderground v.1.15,2013-12-31 07:30:00,
2013-12-31 02:40:00,29.9,27.3,30.19,North,32767,0.0,0.0,90,0.00,,,0.00,Wunderground v.1.15,2013-12-31 07:40:00,
2013-12-31 02:50:00,29.8,27.5,30.19,North,32767,0.0,0.0,91,0.00,,,0.00,Wunderground v.1.15,2013-12-31 07:50:00,
2013-12-31 03:00:00,29.7,27.4,30.19,North,360,0.0,0.0,91,0.00,,,0.00,Wunderground v.1.15,2013-12-31 08:00:00,
2013-12-31 03:05:00,29.7,27.4,30.19,North,32767,0.0,0.0,91,0.00,,,0.00,Wunderground v.1.15,2013-12-31 08:05:00,
2013-12-31 03:15:00,29.6,27.3,30.20,North,360,0.0,0.0,91,0.00,,,0.00,Wunderground v.1.15,2013-12-31 08:15:00,
2013-12-31 03:25:00,29.4,27.4,30.20,North,360,0.0,0.0,92,0.00,,,0.00,Wunderground v.1.15,2013-12-31 08:25:00,
2013-12-31 03:35:00,29.2,27.4,30.21,North,360,0.0,0.0,93,0.00,,,0.00,Wunderground v.1.15,2013-12-31 08:35:00,
2013-12-31 03:45:00,28.9,27.4,30.20,North,32767,0.0,0.0,94,0.00,,,0.00,Wunderground v.1.15,2013-12-31 08:45:00,
2013-12-31 03:55:00,28.7,26.9,30.21,North,32767,0.0,0.0,93,0.00,,,0.00,Wunderground v.1.15,2013-12-31 08:55:00,
2013-12-31 04:05:00,28.5,26.7,30.21,North,32767,0.0,0.0,93,0.00,,,0.00,Wunderground v.1.15,2013-12-31 09:05:00,
2013-12-31 04:15:00,28.3,26.5,30.22,North,360,0.0,0.0,93,0.00,,,0.00,Wunderground v.1.15,2013-12-31 09:15:00,
2013-12-31 04:25:00,28.2,26.4,30.22,North,360,0.0,0.0,93,0.00,,,0.00,Wunderground v.1.15,2013-12-31 09:25:00,
2013-12-31 04:30:00,28.1,26.3,30.22,North,360,0.0,0.0,93,0.00,,,0.00,Wunderground v.1.15,2013-12-31 09:30:00,
2013-12-31 04:40:00,28.0,26.0,30.23,North,32767,0.0,0.0,92,0.00,,,0.00,Wunderground v.1.15,2013-12-31 09:40:00,
2013-12-31 04:50:00,27.9,25.9,30.23,North,360,0.0,0.0,92,0.00,,,0.00,Wunderground v.1.15,2013-12-31 09:50:00,
2013-12-31 05:00:00,27.8,25.8,30.23,North,360,0.0,0.0,92,0.00,,,0.00,Wunderground v.1.15,2013-12-31 10:00:00,
2013-12-31 05:05:00,27.8,25.8,30.23,North,360,0.0,0.0,92,0.00,,,0.00,Wunderground v.1.15,2013-12-31 10:05:00,
2013-12-31 05:15:00,27.8,25.5,30.22,North,360,0.0,0.0,91,0.00,,,0.00,Wunderground v.1.15,2013-12-31 10:15:00,
2013-12-31 05:25:00,27.8,25.2,30.22,North,360,0.0,0.0,90,0.00,,,0.00,Wunderground v.1.15,2013-12-31 10:25:00,
2013-12-31 05:35:00,27.8,25.0,30.22,North,360,0.0,0.0,89,0.00,,,0.00,Wunderground v.1.15,2013-12-31 10:35:00,
2013-12-31 05:45:00,27.8,25.0,30.23,North,32767,0.0,0.0,89,0.00,,,0.00,Wunderground v.1.15,2013-12-31 10:45:00,
2013-12-31 05:55:00,27.7,24.1,30.23,North,32767,0.0,0.0,86,0.00,,,0.00,Wunderground v.1.15,2013-12-31 10:55:00,
2013-12-31 06:00:00,27.6,23.7,30.24,North,360,0.0,0.0,85,0.00,,,0.00,Wunderground v.1.15,2013-12-31 11:00:00,
2013-12-31 06:05:00,27.6,23.7,30.25,North,32767,0.0,0.0,85,0.00,,,0.00,Wunderground v.1.15,2013-12-31 11:05:00,
2013-12-31 06:15:00,27.6,23.7,30.25,North,32767,0.0,0.0,85,0.00,,,0.00,Wunderground v.1.15,2013-12-31 11:15:00,
2013-12-31 06:25:00,27.5,23.6,30.25,North,32767,0.0,0.0,85,0.00,,,0.00,Wunderground v.1.15,2013-12-31 11:25:00,
2013-12-31 06:30:00,27.4,23.5,30.26,North,360,0.0,0.0,85,0.00,,,0.00,Wunderground v.1.15,2013-12-31 11:30:00,
2013-12-31 06:40:00,27.4,23.2,30.26,North,360,0.0,0.0,84,0.00,,,0.00,Wunderground v.1.15,2013-12-31 11:40:00,
2013-12-31 06:50:00,27.4,22.9,30.26,North,360,0.0,0.0,83,0.00,,,0.00,Wunderground v.1.15,2013-12-31 11:50:00,
2013-12-31 07:00:00,27.4,23.2,30.27,North,32767,0.0,0.0,84,0.00,,,0.00,Wunderground v.1.15,2013-12-31 12:00:00,
2013-12-31 07:05:00,27.3,22.5,30.27,North,32767,0.0,0.0,82,0.00,,,0.00,Wunderground v.1.15,2013-12-31 12:05:00,
2013-12-31 07:15:00,27.5,22.1,30.28,North,360,0.0,0.0,80,0.00,,,0.00,Wunderground v.1.15,2013-12-31 12:15:00,
2013-12-31 07:25:00,27.6,21.9,30.28,North,360,0.0,0.0,79,0.00,,,0.00,Wunderground v.1.15,2013-12-31 12:25:00,
2013-12-31 07:35:00,27.6,22.2,30.28,North,360,0.0,0.0,80,0.00,,,0.00,Wunderground v.1.15,2013-12-31 12:35:00,
2013-12-31 07:45:00,27.8,22.1,30.29,North,32767,0.0,0.0,79,0.00,,,0.00,Wunderground v.1.15,2013-12-31 12:45:00,
2013-12-31 07:50:00,28.0,22.3,30.29,North,32767,0.0,0.0,79,0.00,,,0.00,Wunderground v.1.15,2013-12-31 12:50:00,
2013-12-31 08:00:00,28.1,22.1,30.29,North,32767,0.0,0.0,78,0.00,,,0.00,Wunderground v.1.15,2013-12-31 13:00:00,
2013-12-31 08:05:00,28.3,22.3,30.30,North,32767,0.0,0.0,78,0.00,,,0.00,Wunderground v.1.15,2013-12-31 13:05:00,
2013-12-31 08:15:00,28.4,22.1,30.30,North,32767,0.0,0.0,77,0.00,,,0.00,Wunderground v.1.15,2013-12-31 13:15:00,
2013-12-31 08:20:00,28.5,22.2,30.31,North,32767,0.0,0.0,77,0.00,,,0.00,Wunderground v.1.15,2013-12-31 13:20:00,
2013-12-31 08:30:00,28.7,22.4,30.31,North,32767,0.0,0.0,77,0.00,,,0.00,Wunderground v.1.15,2013-12-31 13:30:00,
2013-12-31 08:40:00,28.8,22.5,30.32,North,32767,0.0,0.0,77,0.00,,,0.00,Wunderground v.1.15,2013-12-31 13:40:00,
2013-12-31 08:50:00,28.9,22.6,30.32,North,32767,0.0,0.0,77,0.00,,,0.00,Wunderground v.1.15,2013-12-31 13:50:00,
2013-12-31 08:55:00,28.9,22.6,30.33,North,32767,0.0,0.0,77,0.00,,,0.00,Wunderground v.1.15,2013-12-31 13:55:00,
2013-12-31 09:05:00,29.1,23.1,30.34,North,32767,0.0,0.0,78,0.00,,,0.00,Wunderground v.1.15,2013-12-31 14:05:00,
2013-12-31 09:15:00,29.3,23.0,30.34,North,32767,0.0,0.0,77,0.00,,,0.00,Wunderground v.1.15,2013-12-31 14:15:00,
2013-12-31 09:20:00,29.4,22.8,30.35,North,32767,0.0,0.0,76,0.00,,,0.00,Wunderground v.1.15,2013-12-31 14:20:00,
2013-12-31 09:25:00,29.6,22.6,30.35,North,32767,0.0,0.0,75,0.00,,,0.00,Wunderground v.1.15,2013-12-31 14:25:00,
2013-12-31 09:30:00,29.6,22.6,30.36,North,360,0.0,0.0,75,0.00,,,0.00,Wunderground v.1.15,2013-12-31 14:30:00,
2013-12-31 09:40:00,29.7,23.1,30.36,North,32767,0.0,0.0,76,0.00,,,0.00,Wunderground v.1.15,2013-12-31 14:40:00,
2013-12-31 09:50:00,29.8,23.2,30.35,North,32767,0.0,0.0,76,0.00,,,0.00,Wunderground v.1.15,2013-12-31 14:50:00,
2013-12-31 09:55:00,29.8,23.2,30.35,North,360,0.0,0.0,76,0.00,,,0.00,Wunderground v.1.15,2013-12-31 14:55:00,
2013-12-31 10:00:00,29.8,23.2,30.35,North,32767,0.0,0.0,76,0.00,,,0.00,Wunderground v.1.15,2013-12-31 15:00:00,
2013-12-31 10:05:00,29.9,23.3,30.36,North,360,0.0,0.0,76,0.00,,,0.00,Wunderground v.1.15,2013-12-31 15:05:00,
2013-12-31 10:15:00,30.1,23.1,30.36,North,32767,0.0,0.0,75,0.00,,,0.00,Wunderground v.1.15,2013-12-31 15:15:00,
2013-12-31 10:25:00,30.4,23.4,30.37,North,32767,0.0,0.0,75,0.00,,,0.00,Wunderground v.1.15,2013-12-31 15:25:00,
2013-12-31 10:30:00,30.6,23.3,30.37,North,32767,0.0,0.0,74,0.00,,,0.00,Wunderground v.1.15,2013-12-31 15:30:00,
2013-12-31 10:35:00,30.8,23.5,30.37,North,32767,0.0,0.0,74,0.00,,,0.00,Wunderground v.1.15,2013-12-31 15:35:00,
2013-12-31 10:45:00,31.2,23.5,30.37,North,32767,0.0,0.0,73,0.00,,,0.00,Wunderground v.1.15,2013-12-31 15:45:00,
2013-12-31 10:55:00,31.7,23.7,30.38,North,32767,0.0,0.0,72,0.00,,,0.00,Wunderground v.1.15,2013-12-31 15:55:00,
2013-12-31 11:00:00,31.9,23.6,30.37,North,360,0.0,0.0,71,0.00,,,0.00,Wunderground v.1.15,2013-12-31 16:00:00,
2013-12-31 11:05:00,32.2,23.5,30.37,North,32767,0.0,0.0,70,0.00,,,0.00,Wunderground v.1.15,2013-12-31 16:05:00,
2013-12-31 11:15:00,32.5,23.5,30.38,North,32767,0.0,0.0,69,0.00,,,0.00,Wunderground v.1.15,2013-12-31 16:15:00,
2013-12-31 11:25:00,32.7,22.9,30.38,North,32767,0.0,0.0,67,0.00,,,0.00,Wunderground v.1.15,2013-12-31 16:25:00,
2013-12-31 11:35:00,33.1,23.0,30.37,North,32767,0.0,0.0,66,0.00,,,0.00,Wunderground v.1.15,2013-12-31 16:35:00,
2013-12-31 11:45:00,33.6,22.7,30.37,North,360,0.0,0.0,64,0.00,,,0.00,Wunderground v.1.15,2013-12-31 16:45:00,
2013-12-31 11:55:00,34.4,23.1,30.37,North,32767,0.0,0.0,63,0.00,,,0.00,Wunderground v.1.15,2013-12-31 16:55:00,
2013-12-31 12:05:00,34.4,22.3,30.38,North,32767,0.0,0.0,61,0.00,,,0.00,Wunderground v.1.15,2013-12-31 17:05:00,
2013-12-31 12:15:00,34.9,23.2,30.39,North,360,0.0,0.0,62,0.00,,,0.00,Wunderground v.1.15,2013-12-31 17:15:00,
2013-12-31 12:25:00,34.9,21.6,30.39,North,360,0.0,0.0,58,0.00,,,0.00,Wunderground v.1.15,2013-12-31 17:25:00,
2013-12-31 12:35:00,34.4,21.1,30.38,North,32767,0.0,0.0,58,0.00,,,0.00,Wunderground v.1.15,2013-12-31 17:35:00,
2013-12-31 12:45:00,34.8,21.9,30.37,North,32767,0.0,0.0,59,0.00,,,0.00,Wunderground v.1.15,2013-12-31 17:45:00,
2013-12-31 12:55:00,34.7,22.2,30.37,North,360,0.0,0.0,60,0.00,,,0.00,Wunderground v.1.15,2013-12-31 17:55:00,
2013-12-31 13:05:00,35.3,23.2,30.36,North,360,0.0,0.0,61,0.00,,,0.00,Wunderground v.1.15,2013-12-31 18:05:00,
2013-12-31 13:15:00,35.3,22.8,30.36,North,360,0.0,0.0,60,0.00,,,0.00,Wunderground v.1.15,2013-12-31 18:15:00,
2013-12-31 13:25:00,35.3,23.2,30.36,North,360,0.0,0.0,61,0.00,,,0.00,Wunderground v.1.15,2013-12-31 18:25:00,
2013-12-31 13:35:00,35.6,24.2,30.36,North,32767,0.0,0.0,63,0.00,,,0.00,Wunderground v.1.15,2013-12-31 18:35:00,
2013-12-31 13:45:00,35.1,23.8,30.36,North,32767,0.0,0.0,63,0.00,,,0.00,Wunderground v.1.15,2013-12-31 18:45:00,
2013-12-31 13:55:00,35.0,24.0,30.36,North,32767,0.0,0.0,64,0.00,,,0.00,Wunderground v.1.15,2013-12-31 18:55:00,
2013-12-31 14:00:00,35.0,24.0,30.36,North,360,0.0,0.0,64,0.00,,,0.00,Wunderground v.1.15,2013-12-31 19:00:00,
2013-12-31 14:10:00,35.8,24.8,30.35,North,360,0.0,0.0,64,0.00,,,0.00,Wunderground v.1.15,2013-12-31 19:10:00,
2013-12-31 14:15:00,36.1,24.7,30.35,North,32767,0.0,0.0,63,0.00,,,0.00,Wunderground v.1.15,2013-12-31 19:15:00,
2013-12-31 14:20:00,36.0,24.6,30.34,North,32767,0.0,0.0,63,0.00,,,0.00,Wunderground v.1.15,2013-12-31 19:20:00,
2013-12-31 14:25:00,35.9,24.1,30.34,North,360,0.0,0.0,62,0.00,,,0.00,Wunderground v.1.15,2013-12-31 19:25:00,
2013-12-31 14:35:00,36.0,23.8,30.34,North,32767,0.0,0.0,61,0.00,,,0.00,Wunderground v.1.15,2013-12-31 19:35:00,
2013-12-31 14:40:00,36.3,24.9,30.34,North,32767,0.0,0.0,63,0.00,,,0.00,Wunderground v.1.15,2013-12-31 19:40:00,
2013-12-31 14:45:00,36.4,24.2,30.34,North,32767,0.0,0.0,61,0.00,,,0.00,Wunderground v.1.15,2013-12-31 19:45:00,
2013-12-31 14:55:00,36.3,23.3,30.34,North,32767,0.0,0.0,59,0.00,,,0.00,Wunderground v.1.15,2013-12-31 19:55:00,
2013-12-31 15:05:00,36.1,23.1,30.35,North,32767,0.0,0.0,59,0.00,,,0.00,Wunderground v.1.15,2013-12-31 20:05:00,
2013-12-31 15:15:00,36.1,24.3,30.36,North,32767,0.0,0.0,62,0.00,,,0.00,Wunderground v.1.15,2013-12-31 20:15:00,
2013-12-31 15:25:00,36.4,24.6,30.37,North,32767,0.0,0.0,62,0.00,,,0.00,Wunderground v.1.15,2013-12-31 20:25:00,
2013-12-31 15:30:00,36.9,25.1,30.37,North,360,0.0,0.0,62,0.00,,,0.00,Wunderground v.1.15,2013-12-31 20:30:00,
2013-12-31 15:40:00,37.3,24.7,30.37,North,360,0.0,0.0,60,0.00,,,0.00,Wunderground v.1.15,2013-12-31 20:40:00,
2013-12-31 15:50:00,36.3,24.1,30.37,North,32767,0.0,0.0,61,0.00,,,0.00,Wunderground v.1.15,2013-12-31 20:50:00,
2013-12-31 16:00:00,36.4,23.8,30.37,North,32767,0.0,0.0,60,0.00,,,0.00,Wunderground v.1.15,2013-12-31 21:00:00,
2013-12-31 16:05:00,36.1,23.1,30.36,North,32767,0.0,0.0,59,0.00,,,0.00,Wunderground v.1.15,2013-12-31 21:05:00,
2013-12-31 16:15:00,35.9,23.4,30.36,North,32767,0.0,0.0,60,0.00,,,0.00,Wunderground v.1.15,2013-12-31 21:15:00,
2013-12-31 16:20:00,35.9,23.0,30.36,North,32767,0.0,0.0,59,0.00,,,0.00,Wunderground v.1.15,2013-12-31 21:20:00,
2013-12-31 16:25:00,35.6,21.9,30.36,North,32767,0.0,0.0,57,0.00,,,0.00,Wunderground v.1.15,2013-12-31 21:25:00,
2013-12-31 16:30:00,35.2,20.6,30.36,North,32767,0.0,0.0,55,0.00,,,0.00,Wunderground v.1.15,2013-12-31 21:30:00,
2013-12-31 16:35:00,35.0,20.9,30.37,North,32767,0.0,0.0,56,0.00,,,0.00,Wunderground v.1.15,2013-12-31 21:35:00,
2013-12-31 16:40:00,34.8,20.7,30.37,North,32767,0.0,0.0,56,0.00,,,0.00,Wunderground v.1.15,2013-12-31 21:40:00,
2013-12-31 16:50:00,34.4,19.9,30.36,North,360,0.0,0.0,55,0.00,,,0.00,Wunderground v.1.15,2013-12-31 21:50:00,
2013-12-31 16:55:00,34.2,20.1,30.37,North,32767,0.0,0.0,56,0.00,,,0.00,Wunderground v.1.15,2013-12-31 21:55:00,
2013-12-31 17:00:00,33.9,19.8,30.37,North,360,0.0,0.0,56,0.00,,,0.00,Wunderground v.1.15,2013-12-31 22:00:00,
2013-12-31 17:05:00,33.6,20.0,30.37,North,32767,0.0,0.0,57,0.00,,,0.00,Wunderground v.1.15,2013-12-31 22:05:00,
2013-12-31 17:15:00,33.2,20.4,30.37,North,360,0.0,0.0,59,0.00,,,0.00,Wunderground v.1.15,2013-12-31 22:15:00,
2013-12-31 17:20:00,32.9,20.1,30.37,North,360,0.0,0.0,59,0.00,,,0.00,Wunderground v.1.15,2013-12-31 22:20:00,
2013-12-31 17:30:00,32.4,21.2,30.37,North,32767,0.0,0.0,63,0.00,,,0.00,Wunderground v.1.15,2013-12-31 22:30:00,
2013-12-31 17:40:00,31.9,20.7,30.38,North,32767,0.0,0.0,63,0.00,,,0.00,Wunderground v.1.15,2013-12-31 22:40:00,
2013-12-31 17:50:00,31.7,20.9,30.38,North,360,0.0,0.0,64,0.00,,,0.00,Wunderground v.1.15,2013-12-31 22:50:00,
2013-12-31 18:00:00,31.5,20.0,30.39,North,32767,0.0,0.0,62,0.00,,,0.00,Wunderground v.1.15,2013-12-31 23:00:00,
2013-12-31 18:05:00,31.5,20.0,30.39,North,32767,0.0,0.0,62,0.00,,,0.00,Wunderground v.1.15,2013-12-31 23:05:00,
2013-12-31 18:15:00,31.5,20.0,30.39,North,360,0.0,0.0,62,0.00,,,0.00,Wunderground v.1.15,2013-12-31 23:15:00,
2013-12-31 18:25:00,31.5,20.0,30.40,North,360,0.0,0.0,62,0.00,,,0.00,Wunderground v.1.15,2013-12-31 23:25:00,
2013-12-31 18:35:00,31.4,20.2,30.40,North,360,0.0,0.0,63,0.00,,,0.00,Wunderground v.1.15,2013-12-31 23:35:00,
2013-12-31 18:45:00,31.3,20.2,30.40,North,32767,0.0,0.0,63,0.00,,,0.00,Wunderground v.1.15,2013-12-31 23:45:00,
2013-12-31 18:55:00,31.2,20.1,30.40,North,360,0.0,0.0,63,0.00,,,0.00,Wunderground v.1.15,2013-12-31 23:55:00,
2013-12-31 19:05:00,31.0,19.9,30.41,North,360,0.0,0.0,63,0.00,,,0.00,Wunderground v.1.15,2014-01-01 00:05:00,
2013-12-31 19:15:00,30.7,19.6,30.41,North,32767,0.0,0.0,63,0.00,,,0.00,Wunderground v.1.15,2014-01-01 00:15:00,
2013-12-31 19:20:00,30.6,19.5,30.41,North,32767,0.0,0.0,63,0.00,,,0.00,Wunderground v.1.15,2014-01-01 00:20:00,
2013-12-31 19:30:00,30.6,19.5,30.41,North,32767,0.0,0.0,63,0.00,,,0.00,Wunderground v.1.15,2014-01-01 00:30:00,
2013-12-31 19:40:00,30.5,19.8,30.41,North,32767,0.0,0.0,64,0.00,,,0.00,Wunderground v.1.15,2014-01-01 00:40:00,
2013-12-31 19:50:00,30.4,19.7,30.41,North,32767,0.0,0.0,64,0.00,,,0.00,Wunderground v.1.15,2014-01-01 00:50:00,
2013-12-31 20:00:00,30.3,19.6,30.41,North,32767,0.0,0.0,64,0.00,,,0.00,Wunderground v.1.15,2014-01-01 01:00:00,
2013-12-31 20:05:00,30.3,19.6,30.41,North,32767,0.0,0.0,64,0.00,,,0.00,Wunderground v.1.15,2014-01-01 01:05:00,
2013-12-31 20:15:00,30.2,19.8,30.41,North,360,0.0,0.0,65,0.00,,,0.00,Wunderground v.1.15,2014-01-01 01:15:00,
2013-12-31 20:20:00,30.1,19.7,30.41,North,32767,0.0,0.0,65,0.00,,,0.00,Wunderground v.1.15,2014-01-01 01:20:00,
2013-12-31 20:30:00,29.8,19.1,30.41,North,360,0.0,0.0,64,0.00,,,0.00,Wunderground v.1.15,2014-01-01 01:30:00,
2013-12-31 20:35:00,29.6,19.3,30.41,North,32767,0.0,0.0,65,0.00,,,0.00,Wunderground v.1.15,2014-01-01 01:35:00,
2013-12-31 20:40:00,29.3,19.7,30.42,North,360,0.0,0.0,67,0.00,,,0.00,Wunderground v.1.15,2014-01-01 01:40:00,
2013-12-31 20:50:00,28.8,20.2,30.41,North,32767,0.0,0.0,70,0.00,,,0.00,Wunderground v.1.15,2014-01-01 01:50:00,
2013-12-31 20:55:00,28.7,19.8,30.41,North,32767,0.0,0.0,69,0.00,,,0.00,Wunderground v.1.15,2014-01-01 01:55:00,
2013-12-31 21:00:00,28.6,19.7,30.42,North,32767,0.0,0.0,69,0.00,,,0.00,Wunderground v.1.15,2014-01-01 02:00:00,
2013-12-31 21:05:00,28.7,19.8,30.42,North,360,0.0,0.0,69,0.00,,,0.00,Wunderground v.1.15,2014-01-01 02:05:00,
2013-12-31 21:15:00,28.8,19.9,30.41,North,360,0.0,0.0,69,0.00,,,0.00,Wunderground v.1.15,2014-01-01 02:15:00,
2013-12-31 21:25:00,28.9,19.3,30.41,North,360,0.0,0.0,67,0.00,,,0.00,Wunderground v.1.15,2014-01-01 02:25:00,
2013-12-31 21:30:00,29.3,19.3,30.41,North,360,0.0,0.0,66,0.00,,,0.00,Wunderground v.1.15,2014-01-01 02:30:00,
2013-12-31 21:35:00,29.4,18.7,30.41,North,32767,0.0,0.0,64,0.00,,,0.00,Wunderground v.1.15,2014-01-01 02:35:00,
2013-12-31 21:40:00,29.6,18.5,30.42,North,32767,0.0,0.0,63,0.00,,,0.00,Wunderground v.1.15,2014-01-01 02:40:00,
2013-12-31 21:45:00,29.7,18.6,30.41,North,32767,0.0,0.0,63,0.00,,,0.00,Wunderground v.1.15,2014-01-01 02:45:00,
2013-12-31 21:50:00,29.6,18.5,30.42,North,32767,0.0,0.0,63,0.00,,,0.00,Wunderground v.1.15,2014-01-01 02:50:00,
2013-12-31 22:00:00,29.6,18.9,30.42,North,32767,0.0,0.0,64,0.00,,,0.00,Wunderground v.1.15,2014-01-01 03:00:00,
2013-12-31 22:05:00,29.5,18.4,30.42,North,360,0.0,0.0,63,0.00,,,0.00,Wunderground v.1.15,2014-01-01 03:05:00,
2013-12-31 22:15:00,29.6,18.5,30.41,North,360,0.0,0.0,63,0.00,,,0.00,Wunderground v.1.15,2014-01-01 03:15:00,
2013-12-31 22:20:00,29.7,18.3,30.41,North,32767,0.0,0.0,62,0.00,,,0.00,Wunderground v.1.15,2014-01-01 03:20:00,
2013-12-31 22:25:00,29.7,19.0,30.41,North,360,0.0,0.0,64,0.00,,,0.00,Wunderground v.1.15,2014-01-01 03:25:00,
2013-12-31 22:30:00,29.6,18.9,30.42,North,360,0.0,0.0,64,0.00,,,0.00,Wunderground v.1.15,2014-01-01 03:30:00,
2013-12-31 22:35:00,29.6,18.9,30.41,North,360,0.0,0.0,64,0.00,,,0.00,Wunderground v.1.15,2014-01-01 03:35:00,
2013-12-31 22:45:00,29.4,18.7,30.41,North,360,0.0,0.0,64,0.00,,,0.00,Wunderground v.1.15,2014-01-01 03:45:00,
2013-12-31 22:50:00,29.4,18.3,30.41,North,360,0.0,0.0,63,0.00,,,0.00,Wunderground v.1.15,2014-01-01 03:50:00,
2013-12-31 22:55:00,29.4,18.3,30.41,North,32767,0.0,0.0,63,0.00,,,0.00,Wunderground v.1.15,2014-01-01 03:55:00,
2013-12-31 23:05:00,29.5,18.1,30.41,North,32767,0.0,0.0,62,0.00,,,0.00,Wunderground v.1.15,2014-01-01 04:05:00,
2013-12-31 23:15:00,29.5,18.1,30.41,North,32767,0.0,0.0,62,0.00,,,0.00,Wunderground v.1.15,2014-01-01 04:15:00,
2013-12-31 23:25:00,29.4,18.3,30.41,North,32767,0.0,0.0,63,0.00,,,0.00,Wunderground v.1.15,2014-01-01 04:25:00,
2013-12-31 23:35:00,29.4,18.7,30.40,North,32767,0.0,0.0,64,0.00,,,0.00,Wunderground v.1.15,2014-01-01 04:35:00,
2013-12-31 23:40:00,29.3,19.3,30.41,North,32767,0.0,0.0,66,0.00,,,0.00,Wunderground v.1.15,2014-01-01 04:40:00,
2013-12-31 23:50:00,28.8,18.5,30.41,North,32767,0.0,0.0,65,0.00,,,0.00,Wunderground v.1.15,2014-01-01 04:50:00,